Regional Weather Roundup
Issued by NWS State College, PA

Home | Current Version | Previous Version | Text Only | Print | Product List | Glossary On
Versions: 1 2 3 4 5 6 7 8 9 10 11 12 13 14 15 16 17 18 19 20 21 22 23 24 25 26 27 28 29 30 31 32 33 34 35 36 37 38 39 40 41 42 43 44 45 46 47 48 49 50
000
ASUS41 KCTP 260803
RWRCTP

REGIONAL WEATHER ROUNDUP
NATIONAL WEATHER SERVICE STATE COLLEGE PA
400 AM EDT WED APR 26 2017

Note: "fair" indicates few or no clouds below 12,000 feet with no
significant weather and/or obstructions to visibility.

* = STATION THAT DOES NOT REPORT PRECIPITATION /E.G. RAIN...SNOW...ETC/
    THUNDER OR FOG.

PAZ002>004-007>009-013>016-020>023-029>032-260900-
WESTERN PENNSYLVANIA

CITY           SKY/WX    TMP DP  RH WIND       PRES   REMARKS
ERIE           CLOUDY    59  53  80 SE5       29.76F
MEADVILLE      CLOUDY    56  52  86 E3        29.77S
FRANKLIN*      CLOUDY    54  48  82 SE5       29.79F
NEW CASTLE     FAIR      49  48  97 CALM      29.77F
BEAVER COUNTY  NOT AVBL
BUTLER*        CLOUDY    55  52  88 E8        29.78S
PITTSBURGH INT PTCLDY    53  53 100 CALM      29.75F
PITTSBURGH     CLEAR     53  50  89 NE6       29.75F
INDIANA*       CLOUDY    55  54  94 CALM      29.80S
LATROBE        CLOUDY    52  52 100 CALM      29.77F
WASHINGTON CO* CLOUDY    45  43  93 CALM      29.77F VSB 1/2
$$

PAZ004>006-010>012-017>019-024>028-033>037-041-042-045-046-049>053-260900-
CENTRAL PENNSYLVANIA

CITY           SKY/WX    TMP DP  RH WIND       PRES   REMARKS
BRADFORD       CLOUDY    52  51  97 E6        29.80F
DUBOIS         CLOUDY    53  50  89 E3        29.78S
CLEARFIELD     CLOUDY    53  53 100 NE6       29.78F FOG
JOHNSTOWN      FOG       51  51 100 NE3       29.76F VSB 1/4
ALTOONA        CLOUDY    54  53  97 N6        29.76F
STATE COLLEGE  CLOUDY    53  52  98 NE8       29.76F FOG
WILLIAMSPORT   CLOUDY    55  54  96 SW3       29.76F
SELINSGROVE    LGT RAIN  55  54  96 N3        29.76F
FT INDIANTOWN  CLOUDY    54  54 100 NE6       29.73S
CAPITAL CITY   LGT RAIN  56  53  90 N3        29.73F FOG
HARRISBURG     LGT RAIN  55  54  96 NW3       29.72F FOG
YORK           CLOUDY    54  54 100 N7        29.72F
$$

PAZ038>040-043-044-047-048-054-055-060>062-067>071-260900-
EASTERN PENNSYLVANIA

CITY           SKY/WX    TMP DP  RH WIND       PRES   REMARKS
SCRANTON       CLOUDY    53  50  89 E8        29.79S
MOUNT POCONO   FOG       48  48 100 E10       29.78F VSB 1
ALLENTOWN      CLOUDY    53  50  89 NE13      29.75F
QUAKERTOWN*    CLOUDY    54  54 100 NE6       29.75S
READING        CLOUDY    53  53 100 NE8       29.72S
LANCASTER      LGT RAIN  54  54 100 NE9       29.71F FOG
COATESVILLE    CLOUDY    54  54 100 NE3G14    29.71S FOG
POTTSTOWN      CLOUDY    54  53  97 NE14G22   29.73F
BLUE BELL      CLOUDY    54  54 100 NE9       29.73F
DOYLESTOWN     CLOUDY    54  54 100 VRB6      29.73S
WILLOW GROVE   NOT AVBL
NORTH PHILA    LGT RAIN  56  55  97 NE13      29.73F FOG
PHILADELPHIA   LGT RAIN  56  54  93 NE14      29.71S FOG
$$



USA.gov is the U.S. government's official web portal to all federal, state and local government web resources and services.